Beaufort, NC

11:15 AM EDT on August 25, 2019 (GMT -0400)
Smith

Weather History for KMRH - May, 2019

Change the Weather History Date:

Monday, May 6, 2019

  Actual Average Record
Temperature  
Mean Temperature 68 °F -  
Max Temperature 75 °F 74 °F 84 °F (2014)
Min Temperature 63 °F 56 °F 42 °F (1973)
Cooling Degree Days 3    
Growing Degree Days 18 (Base 50)    
Moisture  
Dew Point 60 °F    
Average Humidity 75    
Maximum Humidity 91    
Minimum Humidity 57    
Precipitation  
Precipitation 0.14 in - - ()
Sea Level Pressure  
Sea Level Pressure 29.96 in    
Wind  
Wind Speed 9 mph (NNE)    
Max Wind Speed 17 mph    
Max Gust Speed 24 mph    
Visibility 10 miles    
Events Rain    
Averages and records for this station are not official NWS values.
T = Trace of Precipitation, MM = Missing Value Source: NWS Daily Summary

Daily Weather History Graph

Daily Weather History Graph

Search for Another Location

Airport or City:

Astronomy

May. 06, 2019 Rise Set
Actual Time 6:11 AM EDT 7:55 PM EDT
Civil Twilight 5:44 AM EDT 8:22 PM EDT
Nautical Twilight 5:11 AM EDT 8:55 PM EDT
Astronomical Twilight 4:36 AM EDT 9:30 PM EDT
Moon 7:32 AM EDT (5/6) 9:48 PM EDT (5/6)
Length of Visible Light 14h 38m
Length of Day
13h 43m
Waxing Crescent, 3% of the Moon is Illuminated
May 6
Waxing Crescent
May 11
First Quarter
May 18
Full
May 26
Last Quarter
Jun 3
New

Hourly Weather History & Observations

Time (EDT) Temp. Dew Point Humidity Pressure Visibility Wind Dir Wind Speed Gust Speed Precip Events Conditions
12:12 AM 73.0 °F 69.1 °F 87% 29.78 in 10.0 mi WSW 9.2 mph - 0.01 in   Overcast
12:58 AM 73.0 °F 69.1 °F 87% 29.78 in 10.0 mi West 6.9 mph - 0.01 in   Overcast
1:18 AM 73.0 °F 70.0 °F 90% 29.78 in 1.8 mi West 3.5 mph - 0.11 in Rain Heavy Rain
1:27 AM 72.0 °F 69.1 °F 91% 29.78 in 3.0 mi WNW 8.1 mph - 0.13 in Rain Rain
1:58 AM 71.1 °F 68.0 °F 90% 29.79 in 10.0 mi WNW 4.6 mph - 0.13 in   Partly Cloudy
2:58 AM 71.1 °F 66.9 °F 87% 29.79 in 10.0 mi NNW 13.8 mph - N/A   Clear
3:58 AM 69.1 °F 64.9 °F 87% 29.81 in 10.0 mi North 10.4 mph - N/A   Clear
4:58 AM 66.0 °F 63.0 °F 90% 29.82 in 10.0 mi North 6.9 mph - N/A   Clear
5:58 AM 64.0 °F 60.1 °F 87% 29.84 in 10.0 mi North 10.4 mph - N/A   Clear
6:58 AM 63.0 °F 57.9 °F 84% 29.89 in 10.0 mi North 9.2 mph - N/A   Scattered Clouds
7:12 AM 63.0 °F 59.0 °F 87% 29.90 in 10.0 mi North 8.1 mph - N/A   Overcast
7:58 AM 64.0 °F 59.0 °F 84% 29.94 in 10.0 mi North 10.4 mph - N/A   Overcast
8:58 AM 66.0 °F 60.1 °F 81% 29.96 in 10.0 mi North 6.9 mph - N/A   Overcast
9:58 AM 66.0 °F 57.0 °F 73% 29.98 in 10.0 mi NNE 16.1 mph 21.9 mph N/A   Overcast
10:58 AM 68.0 °F 57.0 °F 68% 29.99 in 10.0 mi NNE 13.8 mph 21.9 mph N/A   Mostly Cloudy
11:58 AM 69.1 °F 57.9 °F 68% 30.01 in 10.0 mi NNE 13.8 mph - N/A   Overcast
12:33 PM 71.1 °F 57.0 °F 61% 30.01 in 10.0 mi NNE 17.3 mph 24.2 mph N/A   Partly Cloudy
12:58 PM 71.1 °F 57.9 °F 63% 30.02 in 10.0 mi North 15.0 mph 21.9 mph N/A   Scattered Clouds
1:58 PM 73.0 °F 57.9 °F 59% 30.02 in 10.0 mi North 13.8 mph 23.0 mph N/A   Scattered Clouds
2:09 PM 72.0 °F 57.0 °F 59% 30.02 in 10.0 mi NNE 13.8 mph 21.9 mph N/A   Mostly Cloudy
2:33 PM 73.0 °F 57.9 °F 59% 30.01 in 10.0 mi NNE 17.3 mph 23.0 mph N/A   Scattered Clouds
2:58 PM 73.9 °F 57.9 °F 57% 30.01 in 10.0 mi NE 9.2 mph - N/A   Scattered Clouds
3:58 PM 73.9 °F 57.9 °F 57% 30.02 in 10.0 mi NNE 8.1 mph - N/A   Scattered Clouds
4:58 PM 73.0 °F 57.0 °F 57% 30.02 in 10.0 mi NE 10.4 mph - N/A   Scattered Clouds
5:58 PM 72.0 °F 57.0 °F 59% 30.04 in 10.0 mi NE 9.2 mph - N/A   Clear
6:58 PM 70.0 °F 57.9 °F 65% 30.06 in 10.0 mi ENE 8.1 mph - N/A   Clear
7:58 PM 66.9 °F 57.9 °F 73% 30.09 in 10.0 mi NE 6.9 mph - N/A   Clear
8:58 PM 66.0 °F 57.9 °F 75% 30.09 in 10.0 mi East 8.1 mph - N/A   Clear
9:58 PM 66.0 °F 59.0 °F 78% 30.12 in 10.0 mi East 8.1 mph - N/A   Clear
10:58 PM 64.9 °F 59.0 °F 81% 30.13 in 10.0 mi East 5.8 mph - N/A   Clear
11:58 PM 64.0 °F 57.9 °F 80% 30.13 in 10.0 mi East 5.8 mph - N/A   Clear